#timestamp,LO_Frequency,Hit,StdDev 
1649944815.5,286046995.7,N
1649944835.3,286046995.3,N
1649944855.2,286046996.0,N
1649944875.0,286046994.4,N
1649944875.9,286046994.4,N
1649944895.8,286046990.2,Y
1649944915.6,286046992.4,P
1649944935.4,286046991.6,P
1649944955.3,286046993.1,P
1649944975.1,286046988.7,Y
1649944995.9,286046999.6,P
1649945015.7,286046998.8,N
1649945035.5,286047000.3,N
1649945055.4,286047001.1,N
1649945075.2,286046998.7,N
1649945095.0,286046999.5,N
1649945095.9,286046999.5,N
1649945115.8,286046998.0,N
1649945135.6,286046995.9,N
1649945155.5,286046995.3,N
1649945175.3,286046997.8,N
1649945195.1,286046997.1,N
1649945215.9,286046998.8,N
1649945235.7,286047002.0,N
1649945255.5,286047001.6,N
1649945275.4,286047003.6,N
1649945295.2,286047005.0,N
1649945315.1,286047004.9,N
1649945316.0,286047004.9,N
1649945335.8,286047005.9,N
1649945355.6,286047007.5,N
1649945375.5,286047007.6,N
1649945395.3,286047007.0,N
1649945415.1,286047007.1,N
1649945435.9,286047007.0,N
1649945455.7,286047009.1,N
1649945475.6,286047007.2,N
1649945495.4,286047007.2,N
1649945515.2,286047005.3,N
1649945535.1,286047003.0,N
1649945536.0,286047003.0,N
1649945555.8,286047004.0,N
1649945575.6,286046999.8,N
1649945595.5,286047002.0,N
1649945615.3,286046998.2,N
1649945635.1,286046999.0,N
1649945655.9,286046999.5,N
1649945675.7,286046996.8,N
1649945695.6,286046997.7,N
1649945715.4,286046997.8,N
1649945735.2,286046996.6,N
1649945755.1,286046998.8,N
1649945756.0,286046998.8,N
1649945775.8,286046998.6,N
1649945795.7,286047000.6,N
1649945815.5,286047003.8,N
1649945835.3,286047004.3,N
1649945855.2,286047003.5,N
1649945875.9,286047001.4,N
1649945895.7,286047002.1,N
1649945915.6,286047002.1,N
1649945935.4,286047001.8,N
1649945955.2,286047001.3,N
1649945975.1,286046998.9,N
1649945976.0,286046998.9,N
1649945995.8,286046996.7,N
1649946015.7,286046996.2,N
1649946035.5,286046997.5,N
1649946055.3,286046995.6,N
1649946075.2,286046995.5,N
1649946095.0,286046995.7,N
1649946095.9,286046995.7,N
1649946115.7,286046997.9,N
1649946135.6,286046995.3,N
1649946155.4,286046996.4,N
1649946175.3,286046994.5,N
1649946195.1,286046992.1,N
1649946196.0,286046992.1,N
1649946215.8,286046996.4,N
1649946235.7,286046993.4,N
1649946255.5,286046993.8,N
1649946275.3,286046994.0,N
1649946295.2,286046991.7,N
1649946315.0,286046994.5,N
1649946315.9,286046994.5,N
1649946335.8,286046992.4,N
1649946355.6,286046994.0,N
1649946375.4,286046994.5,N
1649946395.3,286046993.5,N
1649946415.1,286046993.9,N
1649946435.8,286046992.1,N
1649946455.7,286046994.5,N
1649946475.5,286046993.6,N
1649946495.4,286046993.8,Y
1649946515.2,286047000.9,P
1649946535.0,286047001.2,N
1649946535.9,286047001.2,N
1649946555.8,286046998.5,N
1649946575.6,286046997.1,N
1649946595.4,286046995.3,N
1649946615.3,286046997.5,N
1649946635.1,286046998.0,N
1649946655.9,286046995.0,N
1649946675.7,286046995.2,N
1649946695.5,286046997.7,N
1649946715.4,286046995.3,N
1649946735.2,286046995.3,N
1649946755.0,286046993.7,N
1649946755.9,286046993.7,N
1649946775.8,286046995.6,N
1649946795.6,286046993.5,N
1649946815.5,286046992.4,Y
1649946835.3,286046997.4,P
1649946855.1,286046997.9,P
1649946875.9,286046997.7,P
1649946895.7,286046997.4,Y
1649946915.6,286047000.8,P
1649946935.4,286047000.2,N
1649946955.2,286047002.3,N
1649946975.1,286047000.7,N
1649946976.0,286047000.7,N
1649946995.8,286047001.1,N
1649947015.6,286047000.8,N
1649947035.5,286046999.7,N
1649947055.3,286047000.6,N
1649947075.2,286046998.2,N
1649947095.9,286046999.3,N
1649947115.7,286047000.7,N
1649947135.6,286047000.3,N
1649947155.4,286046998.6,N
1649947175.2,286046999.2,N
1649947195.1,286046999.1,N
1649947196.0,286046999.1,N
1649947215.8,286046998.8,N
1649947235.7,286046999.2,N
1649947255.5,286046999.0,N
1649947275.3,286046996.8,N
1649947295.2,286047001.2,N
1649947315.0,286046999.0,N
1649947315.9,286046999.0,N
1649947335.7,286046998.6,N
1649947355.6,286046998.7,N
1649947375.4,286047000.4,N
1649947395.3,286047002.8,N
1649947415.1,286047002.4,N
1649947416.0,286047002.4,N
1649947435.8,286046998.1,N
1649947455.7,286046998.3,N
1649947475.5,286046997.4,N
1649947495.3,286046995.4,Y
1649947515.2,286046994.9,P
1649947535.0,286046997.9,N
1649947535.9,286046997.9,N
1649947555.8,286046996.7,N
1649947575.6,286046998.4,N
1649947595.4,286047002.6,N
1649947615.3,286046999.8,N
1649947635.1,286046998.7,N
1649947655.8,286046998.8,N
1649947675.7,286046999.5,N
1649947695.5,286046999.3,N
1649947715.4,286046998.7,N
1649947735.2,286047000.6,N
1649947755.0,286046998.1,N
1649947755.9,286046998.1,N
1649947775.8,286047001.2,N
1649947795.6,286047001.0,N
1649947815.4,286047001.3,N
1649947835.3,286047002.1,N
1649947855.1,286047001.4,N
1649947875.9,286046998.8,N
1649947895.7,286046998.7,N
1649947915.5,286047000.5,N
1649947935.4,286047000.5,N
1649947955.2,286047000.9,N
1649947975.0,286047001.9,N
1649947976.0,286047001.9,N
1649947995.8,286046999.8,N
1649948015.6,286046999.8,N
1649948035.5,286047001.6,N
1649948055.3,286047002.3,N
1649948075.1,286047001.7,N
1649948095.9,286047001.9,N
1649948115.7,286047001.8,N
1649948135.6,286047000.2,N
1649948155.4,286047002.4,N
1649948175.2,286047002.0,N
1649948195.1,286047004.4,Y
1649948196.0,286047004.4,P
1649948215.8,286047002.6,N
1649948235.6,286047002.3,N
1649948255.5,286047000.4,N
1649948275.3,286047000.1,N
1649948295.2,286046999.8,N
1649948315.9,286047002.1,N
1649948335.7,286047001.8,N
1649948355.6,286047002.1,N
1649948375.4,286047000.1,N
1649948395.2,286047002.7,N
